{"data":{"norad_id":59382,"intl_designator":"2024-062J","name":"STARLINK-31705","alt_names":[],"object_type":"PAYLOAD","status":"ACTIVE","operator":null,"country":"US","launch_date":"2024-04-02","launch_site_code":"AFWTR","launch_vehicle":null,"mission":null,"orbit_class":"UNKNOWN","rcs_meters":null,"size_class":null,"mass_kg":null,"dimensions":null,"purposes":["comms"],"wikipedia_slug":null,"has_3d_model":false,"image_url":null,"decayed_at":null,"tle_current":{"epoch":"2026-05-24T14:35:39.617088Z","epoch_age_seconds":123112,"freshness":"FRESH","line1":"1 59382U 24062J   26144.60809742  .00001364  00000+0  58168-4 0  9999","line2":"2 59382  53.1611 263.1139 0001250  79.4551 280.6590 15.30193193121256","mean_motion":15.30193193,"eccentricity":0.000125,"inclination_deg":53.1611,"raan_deg":263.1139,"arg_perigee_deg":79.4551,"mean_anomaly_deg":280.659,"bstar":5.8168e-5,"rev_number":12125,"period_min":94.105764330112,"perigee_km":474.37872242045,"apogee_km":476.09206551894,"semimajor_km":6853.3723939697,"source":"CELESTRAK","updated_at":"2026-05-25T13:38:18.914944Z"}}}